Regional Weather Roundup
Issued by NWS

Home | Current Version | Previous Version | Graphics & Text | Print | Product List | Glossary On
Versions: 1 2 3 4 5 6 7 8 9 10 11 12 13 14 15 16 17 18 19 20 21 22 23 24 25 26 27 28 29 30 31 32 33 34 35 36 37 38 39 40 41 42 43 44 45 46 47 48 49 50
448
ASUS44 KJAN 220910
RWRMS

MISSISSIPPI HOURLY WEATHER ROUNDUP
NATIONAL WEATHER SERVICE JACKSON MS
300 AM CST SAT NOV 22 2014

NOTE: "FAIR: INDICATES FEW OR NO CLOUDS BELOW 12,000 FEET WITH NO
SIGNIFICANT WEATHER AND/OR OBSTRUCTIONS TO VISIBILITY.

MSZ001>002-007>008-010>013-018>021-025>028-034>036-221000-
NORTHWEST MISSISSIPPI

CITY           SKY/WX    TMP DP  RH WIND       PRES   REMARKS
CLARKSDALE     MOCLDY    54  48  82 SE6       30.29S
CLEVELAND      CLOUDY    56  49  75 SE5       30.27F
GREENWOOD      MOCLDY    52  45  77 S5        30.30R
GREENVILLE     CLOUDY    55  48  77 SE7       30.27S
GRENADA        FAIR      50  46  87 E5        30.30S
OLIVE BRANCH   PTCLDY    52  50  93 SE8       30.29S
OXFORD         FAIR      50  45  81 SE3       30.32S
TUNICA         PTSUNNY   52  46  82 SE8       30.29S
$$

MSZ003>006-009-014>017-022>024-029>033-037>039-221000-
NORTHEAST MISSISSIPPI

CITY           SKY/WX    TMP DP  RH WIND       PRES   REMARKS
COLUMBUS AFB   NOT AVBL
CORINTH        CLOUDY    50  41  71 SE3       30.32R
GOLDN TRIANGLE CLEAR     46  39  76 CALM      30.32S
STARKVILLE       N/A     43  43 100 CALM      30.32S
TUPELO         MOCLDY    51  41  68 S6        30.32F
$$

MSZ040-058-221000-
CENTRAL MISSISSIPPI

CITY           SKY/WX    TMP DP  RH WIND       PRES   REMARKS
JACKSON INTL   CLOUDY    50  46  86 CALM      30.28S
JACKSON HAWKNS CLOUDY    51  45  79 CALM      30.28S
MERIDIAN KEY   CLEAR     44  38  79 SE3       30.31R
MERIDIAN NAS   CLEAR     44  40  85 CALM      30.32R
RAYMOND        FAIR      50  45  81 MISG      30.28R
VICKSBURG      MOCLDY    53  48  83 CALM      30.27S
$$

MSZ059>079-221000-
SOUTH MISSISSIPPI

CITY           SKY/WX    TMP DP  RH WIND       PRES   REMARKS
BROOKHAVEN     CLOUDY    52  46  82 CALM      30.27F
HATTIESBURG    CLEAR     41  39  93 CALM      30.29F
MCCOMB         CLEAR     51  45  79 E3        30.24F
NATCHEZ        CLOUDY    52  46  82 CALM      30.25S
PINE BELT      CLEAR     43  37  81 CALM      30.28F
$$

MSZ080>082-221000-
COASTAL MISSISSIPPI

CITY           SKY/WX    TMP DP  RH WIND       PRES   REMARKS
BILOXI         CLEAR     50  46  83 NE6       30.25S
PASCAGOULA     CLEAR     42  40  92 NE3       30.27S
GULFPORT       CLEAR     52  45  77 NE7       30.24F
$$



USA.gov is the U.S. government's official web portal to all federal, state and local government web resources and services.